QPF
0.00 0.00 0.00 0.00 0.00 0.01 0.01 0.01 0.01 0.02 0.02 0.02 0.03 0.03 0.03 0.03 0.03 0.03 0.03 0.03 0.04 0.05 0.05 0.05 0.04 0.03 0.02 0.02 0.02 0.03 0.03 0.03 0.03 0.02 0.02 0.01 0.02 0.02 0.02 0.02 0.02 0.03 0.03
0.00 0.00 0.00 0.00 0.00 0.01 0.01 0.01 0.01 0.02 0.02 0.02 0.02 0.02 0.02 0.02 0.02 0.03 0.03 0.03 0.03 0.03 0.04 0.04 0.04 0.03 0.02 0.02 0.03 0.03 0.03 0.03 0.03 0.02 0.02 0.02 0.02 0.02 0.02 0.03 0.03 0.02 0.03
0.00 0.00 0.00 0.00 0.00 0.01 0.01 0.01 0.01 0.01 0.02 0.02 0.02 0.02 0.03 0.02 0.02 0.02 0.02 0.02 0.03 0.03 0.04 0.04 0.04 0.04 0.04 0.03 0.02 0.02 0.02 0.02 0.02 0.03 0.03 0.03 0.03 0.03 0.03 0.03 0.03 0.03 0.02
0.00 0.00 0.00 0.00 0.01 0.01 0.01 0.01 0.01 0.01 0.01 0.01 0.01 0.02 0.02 0.02 0.03 0.03 0.02 0.02 0.03 0.03 0.04 0.04 0.05 0.05 0.04 0.04 0.03 0.03 0.02 0.02 0.02 0.02 0.03 0.03 0.03 0.03 0.03 0.03 0.03 0.03 0.03
0.00 0.00 0.00 0.01 0.01 0.01 0.02 0.02 0.02 0.01 0.01 0.01 0.01 0.01 0.02 0.02 0.03 0.03 0.03 0.03 0.03 0.03 0.03 0.04 0.05 0.05 0.05 0.03 0.03 0.02 0.02 0.02 0.02 0.02 0.02 0.02 0.02 0.02 0.03 0.03 0.02 0.03 0.03
0.00 0.01 0.01 0.01 0.01 0.01 0.01 0.01 0.02 0.01 0.01 0.01 0.01 0.01 0.01 0.02 0.03 0.03 0.02 0.02 0.03 0.03 0.03 0.03 0.04 0.05 0.05 0.05 0.04 0.03 0.02 0.02 0.02 0.02 0.02 0.02 0.02 0.02 0.02 0.02 0.03 0.03 0.04
0.01 0.01 0.01 0.01 0.01 0.01 0.01 0.01 0.01 0.01 0.01 0.01 0.02 0.02 0.02 0.02 0.02 0.02 0.02 0.02 0.02 0.02 0.02 0.02 0.03 0.03 0.04 0.03 0.04 0.04 0.03 0.02 0.02 0.02 0.02 0.01 0.01 0.01 0.02 0.02 0.03 0.04 0.03
0.01 0.01 0.01 0.01 0.01 0.01 0.01 0.01 0.01 0.01 0.02 0.02 0.03 0.03 0.03 0.03 0.03 0.03 0.03 0.03 0.03 0.02 0.02 0.02 0.02 0.03 0.02 0.02 0.02 0.03 0.03 0.03 0.02 0.01 0.01 0.01 0.00 0.01 0.02 0.02 0.03 0.04 0.04
0.01 0.01 0.01 0.01 0.01 0.01 0.01 0.01 0.01 0.01 0.02 0.02 0.03 0.04 0.04 0.03 0.03 0.03 0.03 0.03 0.03 0.03 0.03 0.03 0.02 0.02 0.03 0.03 0.03 0.03 0.02 0.02 0.02 0.02 0.01 0.01 0.01 0.01 0.01 0.03 0.04 0.05 0.06
0.01 0.01 0.01 0.01 0.01 0.01 0.01 0.01 0.01 0.01 0.01 0.02 0.03 0.04 0.04 0.03 0.03 0.02 0.02 0.02 0.02 0.02 0.02 0.02 0.03 0.03 0.03 0.03 0.03 0.02 0.02 0.01 0.01 0.02 0.02 0.01 0.01 0.01 0.01 0.03 0.04 0.05 0.05
0.01 0.01 0.01 0.01 0.01 0.01 0.01 0.01 0.01 0.01 0.01 0.01 0.02 0.03 0.03 0.03 0.03 0.03 0.02 0.02 0.02 0.02 0.02 0.02 0.02 0.02 0.02 0.02 0.02 0.02 0.02 0.01 0.01 0.02 0.02 0.02 0.01 0.01 0.02 0.03 0.04 0.04 0.04
0.01 0.01 0.01 0.01 0.01 0.01 0.01 0.01 0.01 0.01 0.01 0.01 0.02 0.02 0.02 0.02 0.02 0.03 0.03 0.02 0.02 0.02 0.02 0.02 0.02 0.02 0.02 0.02 0.02 0.02 0.02 0.02 0.02 0.02 0.01 0.01 0.01 0.02 0.02 0.03 0.03 0.03 0.03
0.01 0.01 0.01 0.01 0.01 0.01 0.01 0.01 0.01 0.01 0.01 0.01 0.01 0.01 0.01 0.02 0.02 0.02 0.02 0.02 0.02 0.02 0.02 0.02 0.02 0.02 0.01 0.02 0.02 0.02 0.02 0.02 0.02 0.01 0.01 0.01 0.01 0.02 0.02 0.03 0.04 0.04 0.04
0.01 0.01 0.01 0.01 0.01 0.01 0.01 0.01 0.01 0.01 0.01 0.01 0.01 0.01 0.01 0.01 0.01 0.01 0.01 0.01 0.02 0.02 0.02 0.02 0.02 0.02 0.01 0.01 0.02 0.02 0.02 0.02 0.01 0.01 0.01 0.02 0.02 0.02 0.03 0.03 0.04 0.04 0.05
0.01 0.01 0.01 0.01 0.01 0.01 0.01 0.01 0.01 0.01 0.01 0.01 0.01 0.01 0.01 0.01 0.01 0.01 0.01 0.01 0.01 0.01 0.01 0.01 0.02 0.02 0.01 0.01 0.02 0.02 0.02 0.02 0.02 0.02 0.02 0.02 0.02 0.03 0.03 0.03 0.03 0.03 0.03
0.01 0.01 0.01 0.01 0.01 0.01 0.01 0.02 0.02 0.02 0.02 0.02 0.02 0.02 0.02 0.02 0.02 0.02 0.02 0.02 0.02 0.02 0.02 0.02 0.01 0.02 0.02 0.02 0.02 0.02 0.02 0.03 0.02 0.02 0.02 0.02 0.02 0.02 0.03 0.03 0.03 0.03 0.03
0.01 0.01 0.01 0.01 0.01 0.02 0.02 0.02 0.02 0.02 0.02 0.02 0.02 0.02 0.03 0.03 0.03 0.03 0.03 0.02 0.02 0.02 0.02 0.02 0.01 0.01 0.01 0.02 0.02 0.02 0.02 0.02 0.02 0.02 0.02 0.02 0.02 0.02 0.02 0.03 0.03 0.03 0.03
0.01 0.01 0.01 0.01 0.01 0.02 0.02 0.02 0.02 0.01 0.02 0.02 0.02 0.03 0.03 0.03 0.03 0.03 0.03 0.03 0.03 0.02 0.02 0.01 0.01 0.01 0.01 0.01 0.02 0.02 0.02 0.02 0.02 0.03 0.02 0.02 0.02 0.02 0.02 0.03 0.03 0.03 0.03
0.02 0.02 0.02 0.02 0.02 0.02 0.02 0.02 0.02 0.02 0.02 0.03 0.03 0.03 0.03 0.03 0.04 0.03 0.02 0.02 0.02 0.01 0.01 0.01 0.01 0.01 0.01 0.01 0.01 0.02 0.02 0.02 0.02 0.02 0.03 0.03 0.03 0.03 0.02 0.02 0.03 0.03 0.03
0.02 0.03 0.03 0.02 0.02 0.02 0.03 0.03 0.03 0.03 0.03 0.03 0.02 0.02 0.03 0.03 0.03 0.02 0.02 0.02 0.02 0.01 0.01 0.01 0.01 0.01 0.01 0.01 0.01 0.01 0.01 0.02 0.02 0.02 0.02 0.02 0.02 0.02 0.02 0.02 0.03 0.03 0.03
0.02 0.02 0.03 0.03 0.03 0.03 0.03 0.03 0.03 0.03 0.03 0.03 0.02 0.02 0.02 0.02 0.02 0.02 0.02 0.01 0.01 0.01 0.01 0.01 0.01 0.01 0.01 0.01 0.01 0.01 0.01 0.01 0.01 0.01 0.01 0.01 0.02 0.02 0.02 0.02 0.02 0.02 0.02
0.02 0.02 0.02 0.03 0.03 0.03 0.03 0.03 0.03 0.03 0.03 0.03 0.02 0.02 0.02 0.02 0.01 0.01 0.01 0.01 0.01 0.01 0.01 0.01 0.01 0.01 0.01 0.01 0.01 0.01 0.01 0.01 0.01 0.01 0.01 0.01 0.01 0.01 0.01 0.01 0.01 0.02 0.02
0.02 0.02 0.02 0.02 0.03 0.03 0.03 0.03 0.03 0.03 0.03 0.02 0.02 0.02 0.02 0.01 0.01 0.01 0.01 0.01 0.01 0.01 0.01 0.01 0.01 0.01 0.01 0.01 0.01 0.01 0.01 0.01 0.01 0.01 0.01 0.01 0.01 0.01 0.01 0.01 0.01 0.02 0.02
0.02 0.02 0.02 0.02 0.02 0.02 0.02 0.02 0.02 0.03 0.03 0.02 0.02 0.02 0.02 0.01 0.01 0.01 0.01 0.01 0.01 0.01 0.01 0.01 0.01 0.01 0.00 0.00 0.01 0.01 0.01 0.01 0.01 0.01 0.01 0.01 0.01 0.01 0.01 0.01 0.01 0.01 0.01
0.02 0.02 0.02 0.02 0.02 0.02 0.02 0.02 0.02 0.02 0.02 0.02 0.02 0.02 0.02 0.01 0.01 0.01 0.01 0.01 0.01 0.00 0.00 0.00 0.00 0.00 0.00 0.00 0.00 0.01 0.01 0.01 0.01 0.01 0.01 0.01 0.01 0.01 0.01 0.01 0.01 0.01 0.01
0.02 0.02 0.02 0.02 0.02 0.02 0.02 0.02 0.02 0.02 0.03 0.02 0.02 0.01 0.01 0.01 0.01 0.01 0.01 0.01 0.01 0.01 0.00 0.00 0.00 0.00 0.00 0.00 0.00 0.00 0.00 0.01 0.01 0.01 0.01 0.01 0.01 0.01 0.01 0.01 0.01 0.01 0.01
MSLP
1031.25 1030.99 1030.73 1030.48 1030.27 1030.10 1029.99 1029.90 1029.81 1029.71 1029.56 1029.34 1029.03 1028.65 1028.21 1027.73 1027.23 1026.77 1026.37 1026.05 1025.81 1025.66 1025.58 1025.53 1025.49 1025.42 1025.31 1025.12 1024.87 1024.56 1024.20 1023.82 1023.44 1023.08 1022.75 1022.46 1022.21 1021.99 1021.80 1021.62 1021.44 1021.25 1021.07
1031.97 1031.71 1031.44 1031.19 1030.97 1030.81 1030.69 1030.61 1030.55 1030.46 1030.34 1030.16 1029.90 1029.56 1029.16 1028.72 1028.26 1027.83 1027.45 1027.13 1026.89 1026.71 1026.59 1026.49 1026.39 1026.26 1026.08 1025.84 1025.54 1025.18 1024.79 1024.38 1023.96 1023.57 1023.19 1022.85 1022.52 1022.22 1021.92 1021.63 1021.33 1021.04 1020.75
1032.63 1032.37 1032.11 1031.86 1031.64 1031.48 1031.36 1031.28 1031.22 1031.16 1031.06 1030.90 1030.68 1030.39 1030.04 1029.66 1029.27 1028.90 1028.56 1028.29 1028.07 1027.90 1027.76 1027.63 1027.48 1027.30 1027.06 1026.76 1026.40 1025.99 1025.56 1025.11 1024.66 1024.22 1023.80 1023.39 1022.99 1022.59 1022.18 1021.77 1021.35 1020.93 1020.52
1033.25 1033.01 1032.75 1032.50 1032.28 1032.12 1032.00 1031.92 1031.86 1031.80 1031.71 1031.57 1031.38 1031.14 1030.84 1030.53 1030.20 1029.90 1029.64 1029.42 1029.24 1029.10 1028.97 1028.83 1028.65 1028.42 1028.13 1027.78 1027.37 1026.92 1026.45 1025.97 1025.49 1025.01 1024.55 1024.08 1023.61 1023.12 1022.61 1022.08 1021.54 1021.01 1020.48
1033.83 1033.60 1033.35 1033.10 1032.90 1032.73 1032.61 1032.53 1032.47 1032.41 1032.33 1032.21 1032.04 1031.82 1031.57 1031.31 1031.05 1030.81 1030.61 1030.45 1030.33 1030.22 1030.11 1029.97 1029.78 1029.53 1029.21 1028.82 1028.38 1027.90 1027.40 1026.89 1026.39 1025.90 1025.40 1024.90 1024.37 1023.82 1023.23 1022.61 1021.97 1021.33 1020.69
1034.37 1034.15 1033.90 1033.67 1033.48 1033.32 1033.22 1033.14 1033.09 1033.03 1032.95 1032.84 1032.68 1032.48 1032.25 1032.02 1031.81 1031.62 1031.47 1031.36 1031.28 1031.21 1031.12 1030.99 1030.80 1030.54 1030.21 1029.80 1029.35 1028.86 1028.35 1027.85 1027.35 1026.85 1026.35 1025.83 1025.28 1024.69 1024.05 1023.37 1022.65 1021.92 1021.19
1034.86 1034.64 1034.40 1034.19 1034.01 1033.88 1033.80 1033.75 1033.72 1033.67 1033.60 1033.49 1033.34 1033.15 1032.93 1032.72 1032.52 1032.35 1032.23 1032.15 1032.09 1032.04 1031.97 1031.85 1031.67 1031.42 1031.09 1030.69 1030.25 1029.77 1029.28 1028.80 1028.32 1027.84 1027.36 1026.85 1026.30 1025.70 1025.04 1024.32 1023.56 1022.76 1021.95
1035.26 1035.05 1034.83 1034.64 1034.50 1034.41 1034.36 1034.35 1034.35 1034.34 1034.29 1034.19 1034.05 1033.86 1033.64 1033.42 1033.22 1033.05 1032.93 1032.85 1032.79 1032.75 1032.68 1032.58 1032.41 1032.17 1031.86 1031.49 1031.08 1030.63 1030.18 1029.74 1029.30 1028.86 1028.41 1027.93 1027.40 1026.81 1026.15 1025.43 1024.64 1023.80 1022.94
1035.58 1035.38 1035.19 1035.03 1034.93 1034.88 1034.89 1034.93 1034.98 1035.00 1034.99 1034.92 1034.79 1034.60 1034.38 1034.15 1033.93 1033.75 1033.60 1033.51 1033.44 1033.39 1033.32 1033.22 1033.07 1032.85 1032.57 1032.24 1031.86 1031.47 1031.07 1030.67 1030.28 1029.88 1029.47 1029.03 1028.54 1027.97 1027.33 1026.61 1025.81 1024.95 1024.04
1035.81 1035.64 1035.48 1035.36 1035.30 1035.31 1035.37 1035.47 1035.57 1035.64 1035.67 1035.63 1035.52 1035.35 1035.13 1034.89 1034.65 1034.45 1034.28 1034.16 1034.08 1034.01 1033.94 1033.84 1033.71 1033.52 1033.27 1032.98 1032.65 1032.30 1031.95 1031.60 1031.25 1030.90 1030.53 1030.12 1029.65 1029.11 1028.49 1027.78 1026.98 1026.11 1025.19
1035.99 1035.85 1035.73 1035.65 1035.64 1035.69 1035.80 1035.94 1036.09 1036.22 1036.29 1036.28 1036.20 1036.04 1035.83 1035.60 1035.36 1035.14 1034.96 1034.82 1034.73 1034.65 1034.58 1034.50 1034.38 1034.21 1034.00 1033.75 1033.47 1033.16 1032.85 1032.54 1032.22 1031.89 1031.54 1031.15 1030.71 1030.18 1029.58 1028.88 1028.09 1027.23 1026.29
1036.14 1036.05 1035.97 1035.93 1035.95 1036.03 1036.18 1036.35 1036.53 1036.68 1036.78 1036.81 1036.76 1036.63 1036.44 1036.22 1036.00 1035.79 1035.62 1035.49 1035.39 1035.32 1035.26 1035.19 1035.10 1034.96 1034.78 1034.57 1034.32 1034.04 1033.76 1033.46 1033.16 1032.84 1032.50 1032.11 1031.66 1031.15 1030.55 1029.87 1029.10 1028.25 1027.32
1036.28 1036.24 1036.21 1036.20 1036.25 1036.35 1036.50 1036.68 1036.86 1037.03 1037.14 1037.19 1037.16 1037.06 1036.91 1036.73 1036.54 1036.37 1036.23 1036.12 1036.05 1036.01 1035.97 1035.93 1035.86 1035.75 1035.60 1035.41 1035.19 1034.93 1034.65 1034.36 1034.05 1033.73 1033.37 1032.97 1032.52 1032.00 1031.42 1030.75 1030.00 1029.18 1028.28
1036.41 1036.44 1036.45 1036.48 1036.53 1036.63 1036.77 1036.93 1037.10 1037.25 1037.36 1037.41 1037.40 1037.34 1037.23 1037.10 1036.97 1036.85 1036.76 1036.71 1036.68 1036.68 1036.68 1036.67 1036.63 1036.55 1036.43 1036.26 1036.04 1035.80 1035.52 1035.22 1034.89 1034.55 1034.17 1033.75 1033.29 1032.77 1032.19 1031.54 1030.82 1030.03 1029.17
1036.51 1036.61 1036.67 1036.72 1036.78 1036.87 1036.98 1037.10 1037.24 1037.35 1037.45 1037.50 1037.51 1037.48 1037.42 1037.35 1037.28 1037.24 1037.21 1037.22 1037.25 1037.30 1037.34 1037.37 1037.36 1037.31 1037.21 1037.05 1036.85 1036.60 1036.32 1036.01 1035.67 1035.30 1034.90 1034.47 1034.00 1033.47 1032.90 1032.27 1031.58 1030.84 1030.02
1036.52 1036.68 1036.80 1036.88 1036.95 1037.03 1037.11 1037.20 1037.29 1037.38 1037.45 1037.50 1037.53 1037.53 1037.52 1037.52 1037.52 1037.55 1037.60 1037.67 1037.76 1037.86 1037.94 1038.00 1038.02 1037.99 1037.90 1037.76 1037.56 1037.32 1037.03 1036.72 1036.37 1035.99 1035.58 1035.14 1034.67 1034.15 1033.59 1032.99 1032.33 1031.62 1030.85
1036.35 1036.59 1036.76 1036.89 1036.98 1037.06 1037.13 1037.21 1037.28 1037.35 1037.41 1037.47 1037.51 1037.55 1037.60 1037.65 1037.73 1037.82 1037.93 1038.06 1038.20 1038.33 1038.45 1038.53 1038.56 1038.54 1038.46 1038.33 1038.14 1037.91 1037.63 1037.32 1036.98 1036.62 1036.22 1035.79 1035.32 1034.82 1034.28 1033.70 1033.06 1032.38 1031.65
1035.93 1036.24 1036.48 1036.66 1036.81 1036.92 1037.02 1037.11 1037.20 1037.27 1037.35 1037.43 1037.51 1037.60 1037.69 1037.81 1037.93 1038.08 1038.24 1038.41 1038.57 1038.72 1038.84 1038.92 1038.96 1038.94 1038.87 1038.74 1038.57 1038.35 1038.10 1037.81 1037.50 1037.16 1036.78 1036.38 1035.94 1035.47 1034.95 1034.38 1033.77 1033.11 1032.38
1035.22 1035.60 1035.92 1036.18 1036.40 1036.58 1036.74 1036.89 1037.02 1037.15 1037.28 1037.41 1037.54 1037.68 1037.83 1037.99 1038.16 1038.34 1038.52 1038.70 1038.86 1039.01 1039.11 1039.18 1039.20 1039.17 1039.09 1038.97 1038.81 1038.62 1038.40 1038.15 1037.88 1037.58 1037.25 1036.89 1036.49 1036.04 1035.55 1035.01 1034.40 1033.74 1033.02
1034.25 1034.69 1035.08 1035.43 1035.75 1036.03 1036.29 1036.53 1036.76 1036.97 1037.18 1037.38 1037.57 1037.77 1037.97 1038.17 1038.37 1038.57 1038.75 1038.92 1039.06 1039.17 1039.25 1039.28 1039.26 1039.21 1039.12 1039.00 1038.86 1038.69 1038.51 1038.31 1038.09 1037.84 1037.57 1037.26 1036.90 1036.49 1036.03 1035.50 1034.91 1034.24 1033.50
1033.10 1033.58 1034.05 1034.49 1034.92 1035.32 1035.70 1036.06 1036.39 1036.71 1037.01 1037.30 1037.57 1037.83 1038.08 1038.31 1038.53 1038.73 1038.90 1039.04 1039.14 1039.20 1039.23 1039.21 1039.16 1039.07 1038.97 1038.84 1038.71 1038.56 1038.42 1038.26 1038.09 1037.90 1037.68 1037.42 1037.11 1036.74 1036.31 1035.80 1035.22 1034.56 1033.81
1031.92 1032.42 1032.95 1033.48 1034.00 1034.52 1035.02 1035.49 1035.95 1036.37 1036.77 1037.14 1037.49 1037.81 1038.09 1038.35 1038.58 1038.77 1038.91 1039.01 1039.07 1039.08 1039.05 1038.98 1038.89 1038.76 1038.63 1038.50 1038.36 1038.23 1038.11 1037.99 1037.86 1037.72 1037.54 1037.33 1037.06 1036.74 1036.34 1035.86 1035.30 1034.66 1033.92
1030.90 1031.40 1031.96 1032.54 1033.14 1033.74 1034.34 1034.91 1035.45 1035.97 1036.44 1036.88 1037.29 1037.65 1037.96 1038.24 1038.46 1038.64 1038.76 1038.83 1038.84 1038.81 1038.73 1038.61 1038.47 1038.31 1038.15 1037.99 1037.84 1037.71 1037.60 1037.49 1037.38 1037.26 1037.12 1036.95 1036.72 1036.43 1036.07 1035.63 1035.11 1034.51 1033.81
1030.20 1030.68 1031.24 1031.84 1032.47 1033.11 1033.75 1034.38 1034.97 1035.53 1036.05 1036.53 1036.96 1037.34 1037.67 1037.95 1038.17 1038.34 1038.44 1038.48 1038.46 1038.39 1038.27 1038.11 1037.93 1037.74 1037.54 1037.35 1037.18 1037.03 1036.90 1036.78 1036.67 1036.56 1036.43 1036.27 1036.07 1035.82 1035.50 1035.12 1034.65 1034.11 1033.49
1029.96 1030.39 1030.90 1031.48 1032.09 1032.72 1033.36 1033.97 1034.56 1035.12 1035.64 1036.11 1036.54 1036.92 1037.25 1037.52 1037.73 1037.88 1037.98 1038.00 1037.96 1037.87 1037.72 1037.54 1037.33 1037.09 1036.86 1036.63 1036.42 1036.23 1036.06 1035.90 1035.76 1035.63 1035.49 1035.33 1035.15 1034.92 1034.65 1034.32 1033.93 1033.48 1032.94
1030.19 1030.55 1030.99 1031.50 1032.05 1032.62 1033.19 1033.74 1034.28 1034.78 1035.25 1035.68 1036.07 1036.42 1036.72 1036.98 1037.18 1037.32 1037.40 1037.42 1037.38 1037.27 1037.11 1036.90 1036.66 1036.39 1036.11 1035.83 1035.57 1035.31 1035.08 1034.87 1034.68 1034.50 1034.33 1034.16 1033.98 1033.77 1033.54 1033.27 1032.96 1032.59 1032.16
Thickness
5453 5454 5456 5457 5458 5459 5460 5460 5461 5462 5462 5462 5463 5463 5463 5463 5464 5464 5465 5464 5463 5462 5461 5461 5460 5460 5459 5458 5457 5457 5457 5457 5455 5455 5455 5455 5454 5454 5454 5454 5455 5455 5456
5439 5441 5443 5444 5445 5446 5447 5447 5448 5449 5449 5450 5450 5451 5451 5450 5450 5451 5451 5451 5451 5450 5449 5448 5448 5447 5446 5446 5445 5445 5444 5444 5443 5442 5442 5441 5442 5442 5442 5442 5442 5443 5444
5426 5427 5429 5431 5432 5433 5434 5434 5435 5436 5436 5437 5437 5437 5437 5437 5437 5437 5437 5437 5437 5437 5436 5435 5435 5434 5434 5433 5433 5432 5431 5430 5430 5429 5429 5428 5428 5428 5428 5429 5430 5430 5431
5412 5414 5415 5417 5419 5420 5420 5421 5422 5422 5423 5423 5423 5423 5423 5424 5423 5423 5423 5423 5423 5423 5423 5423 5422 5422 5422 5421 5421 5420 5419 5417 5416 5416 5416 5415 5414 5414 5413 5414 5416 5417 5419
5398 5399 5401 5403 5404 5406 5406 5407 5407 5408 5408 5408 5408 5409 5409 5409 5409 5409 5409 5409 5409 5409 5409 5409 5409 5409 5410 5410 5409 5408 5407 5405 5403 5403 5403 5401 5400 5399 5399 5400 5401 5403 5406
5383 5384 5386 5387 5389 5390 5391 5392 5393 5393 5393 5393 5393 5394 5394 5394 5395 5395 5395 5395 5395 5395 5395 5395 5395 5396 5396 5397 5397 5396 5395 5394 5392 5391 5390 5389 5388 5386 5386 5386 5386 5388 5392
5367 5368 5370 5371 5372 5374 5376 5377 5377 5377 5377 5378 5378 5378 5379 5380 5381 5381 5381 5381 5381 5381 5381 5381 5382 5382 5382 5383 5383 5382 5381 5380 5380 5379 5377 5376 5375 5374 5372 5372 5372 5374 5377
5352 5353 5354 5355 5356 5358 5359 5361 5361 5362 5362 5363 5363 5364 5364 5365 5366 5367 5367 5366 5366 5367 5367 5368 5368 5368 5368 5368 5368 5368 5367 5366 5366 5365 5364 5363 5361 5360 5359 5358 5358 5359 5362
5338 5339 5339 5340 5341 5342 5343 5345 5346 5346 5347 5347 5348 5349 5349 5350 5351 5352 5352 5351 5352 5352 5353 5353 5353 5354 5355 5355 5355 5354 5353 5352 5351 5350 5350 5349 5347 5346 5344 5343 5342 5342 5347
5323 5324 5324 5325 5326 5327 5328 5329 5331 5332 5332 5333 5333 5333 5334 5335 5335 5336 5336 5336 5337 5338 5338 5338 5339 5340 5340 5340 5340 5340 5339 5338 5337 5336 5335 5334 5332 5331 5329 5328 5328 5327 5329
5309 5309 5309 5310 5311 5312 5313 5314 5315 5316 5317 5318 5319 5319 5319 5319 5320 5321 5321 5321 5322 5322 5323 5324 5324 5324 5325 5325 5325 5325 5325 5324 5322 5321 5320 5318 5317 5316 5315 5314 5313 5313 5315
5295 5295 5295 5296 5297 5298 5298 5300 5300 5301 5301 5302 5303 5303 5303 5304 5305 5306 5306 5307 5307 5307 5308 5308 5309 5309 5310 5311 5310 5310 5310 5309 5308 5306 5305 5304 5303 5302 5301 5300 5300 5300 5301
5280 5280 5280 5281 5282 5283 5284 5285 5285 5286 5286 5287 5288 5288 5289 5289 5290 5291 5292 5292 5292 5292 5293 5294 5294 5294 5295 5295 5295 5295 5295 5294 5293 5292 5291 5290 5288 5287 5287 5287 5287 5287 5289
5266 5266 5267 5267 5268 5269 5270 5271 5272 5272 5272 5273 5274 5275 5275 5275 5275 5276 5276 5277 5277 5278 5278 5278 5278 5278 5279 5279 5279 5279 5279 5278 5278 5277 5277 5275 5274 5273 5272 5273 5273 5274 5276
5252 5253 5253 5254 5255 5256 5257 5258 5259 5260 5260 5261 5262 5262 5262 5263 5264 5264 5264 5264 5264 5264 5265 5264 5264 5264 5264 5264 5264 5263 5263 5263 5262 5262 5261 5260 5260 5259 5259 5259 5260 5260 5261
5240 5240 5240 5241 5242 5243 5244 5246 5247 5248 5249 5249 5250 5250 5250 5252 5253 5253 5252 5252 5252 5252 5252 5251 5251 5251 5251 5251 5250 5249 5249 5249 5249 5248 5248 5247 5247 5246 5246 5246 5246 5247 5248
5227 5228 5228 5229 5230 5230 5231 5232 5234 5236 5236 5236 5237 5237 5238 5240 5240 5241 5240 5240 5239 5239 5238 5238 5238 5238 5238 5237 5237 5237 5237 5237 5236 5236 5236 5235 5235 5235 5234 5234 5234 5234 5234
5216 5217 5217 5218 5218 5219 5220 5221 5221 5222 5222 5223 5224 5224 5225 5226 5227 5227 5227 5226 5224 5224 5224 5224 5225 5225 5225 5225 5225 5224 5224 5224 5224 5224 5224 5223 5223 5222 5222 5221 5220 5220 5219
5206 5207 5207 5207 5208 5208 5209 5210 5210 5210 5210 5210 5211 5211 5211 5212 5213 5213 5212 5210 5210 5210 5210 5211 5212 5212 5212 5213 5213 5212 5212 5212 5211 5211 5211 5210 5210 5209 5208 5208 5207 5206 5205
5197 5198 5198 5197 5198 5198 5199 5199 5200 5199 5199 5198 5199 5199 5198 5197 5196 5196 5196 5196 5197 5197 5198 5198 5199 5199 5199 5200 5200 5200 5200 5199 5199 5198 5198 5197 5196 5196 5195 5194 5193 5192 5191
5189 5189 5188 5188 5188 5189 5189 5189 5189 5188 5188 5187 5187 5188 5189 5186 5185 5184 5184 5184 5185 5185 5186 5186 5186 5187 5187 5187 5188 5187 5187 5187 5186 5186 5185 5184 5183 5182 5182 5181 5179 5178 5177
5179 5179 5178 5178 5179 5179 5179 5179 5179 5178 5177 5177 5177 5176 5177 5175 5174 5173 5173 5173 5173 5174 5174 5174 5175 5175 5175 5176 5176 5176 5176 5175 5175 5174 5173 5172 5171 5170 5169 5168 5166 5165 5164
5170 5169 5168 5168 5168 5168 5168 5168 5168 5168 5168 5167 5166 5166 5164 5164 5163 5163 5163 5163 5163 5163 5163 5163 5164 5165 5165 5165 5165 5165 5165 5165 5164 5163 5162 5160 5159 5158 5157 5156 5155 5153 5153
5159 5158 5158 5158 5157 5157 5158 5159 5159 5159 5158 5157 5157 5156 5156 5155 5154 5154 5154 5153 5153 5153 5153 5153 5154 5155 5155 5155 5154 5154 5154 5154 5153 5152 5151 5150 5148 5147 5145 5144 5143 5143 5142
5147 5147 5147 5147 5147 5147 5148 5149 5149 5149 5148 5148 5147 5147 5147 5146 5145 5145 5144 5143 5143 5143 5143 5143 5144 5144 5145 5145 5145 5144 5144 5144 5143 5142 5140 5139 5137 5136 5135 5134 5133 5132 5131
5137 5137 5137 5137 5137 5138 5138 5138 5138 5139 5139 5138 5138 5138 5137 5137 5136 5135 5135 5134 5133 5133 5133 5134 5134 5135 5135 5135 5135 5135 5134 5134 5133 5132 5130 5129 5127 5126 5124 5124 5123 5122 5121